TimeEST,TemperatureF,Dew PointF,Humidity,Sea Level PressureIn,VisibilityMPH,Wind Direction,Wind SpeedMPH,Gust SpeedMPH,PrecipitationIn,Events,Conditions,WindDirDegrees,DateUTC
12:53 AM,28.9,24.1,82,30.40,10.0,Calm,Calm,-,N/A,,Clear,0,2012-11-14 05:53:00
1:53 AM,27.0,23.0,85,30.39,10.0,Calm,Calm,-,N/A,,Clear,0,2012-11-14 06:53:00
2:53 AM,26.1,23.0,88,30.39,10.0,Calm,Calm,-,N/A,,Clear,0,2012-11-14 07:53:00
3:53 AM,27.0,24.1,89,30.38,10.0,Calm,Calm,-,N/A,,Clear,0,2012-11-14 08:53:00
4:53 AM,25.0,21.9,88,30.38,10.0,Calm,Calm,-,N/A,,Clear,0,2012-11-14 09:53:00
5:53 AM,25.0,21.9,88,30.40,10.0,Calm,Calm,-,N/A,,Clear,0,2012-11-14 10:53:00
6:53 AM,24.1,21.0,88,30.41,10.0,Calm,Calm,-,N/A,,Clear,0,2012-11-14 11:53:00
7:53 AM,26.1,23.0,88,30.42,10.0,Calm,Calm,-,N/A,,Scattered Clouds,0,2012-11-14 12:53:00
8:53 AM,32.0,27.0,82,30.43,10.0,Calm,Calm,-,N/A,,Mostly Cloudy,0,2012-11-14 13:53:00
9:53 AM,37.0,28.0,70,30.42,10.0,Variable,3.5,-,N/A,,Mostly Cloudy,0,2012-11-14 14:53:00
10:53 AM,42.1,28.9,60,30.41,10.0,Variable,4.6,-,N/A,,Mostly Cloudy,0,2012-11-14 15:53:00
11:53 AM,46.0,28.0,50,30.38,10.0,Calm,Calm,-,N/A,,Mostly Cloudy,0,2012-11-14 16:53:00
12:53 PM,48.0,28.9,48,30.35,10.0,Calm,Calm,-,N/A,,Mostly Cloudy,0,2012-11-14 17:53:00
1:53 PM,50.0,27.0,41,30.32,10.0,East,3.5,-,N/A,,Mostly Cloudy,90,2012-11-14 18:53:00
2:53 PM,52.0,26.1,37,30.30,10.0,Calm,Calm,-,N/A,,Mostly Cloudy,0,2012-11-14 19:53:00
3:53 PM,52.0,26.1,37,30.29,10.0,Calm,Calm,-,N/A,,Overcast,0,2012-11-14 20:53:00
4:53 PM,51.1,26.1,38,30.30,10.0,Calm,Calm,-,N/A,,Overcast,0,2012-11-14 21:53:00
5:53 PM,46.0,30.9,56,30.30,10.0,Calm,Calm,-,N/A,,Overcast,0,2012-11-14 22:53:00
6:53 PM,43.0,30.9,62,30.31,10.0,Calm,Calm,-,N/A,,Overcast,0,2012-11-14 23:53:00
7:53 PM,44.1,30.9,60,30.33,10.0,Calm,Calm,-,N/A,,Overcast,0,2012-11-15 00:53:00
8:53 PM,42.1,33.1,70,30.32,10.0,NE,3.5,-,N/A,,Overcast,50,2012-11-15 01:53:00
9:53 PM,44.1,30.9,60,30.31,10.0,Calm,Calm,-,N/A,,Mostly Cloudy,0,2012-11-15 02:53:00
10:53 PM,41.0,30.9,67,30.29,10.0,Calm,Calm,-,N/A,,Scattered Clouds,0,2012-11-15 03:53:00
11:53 PM,39.0,32.0,76,30.27,10.0,Calm,Calm,-,N/A,,Scattered Clouds,0,2012-11-15 04:53:00